OneWeb SL0223

operational
NORAD ID: 48768 Int'l Des: 2021-045 Owner: ONEWEBN Country: UK Constellation: oneweb
LEOCIRCULARPOLARONEWEB_TYPE

About OneWeb SL0223

Description loading...

Live Position

Loading 3D Globe...

Upcoming Passes

Altitude History

Altitude vs Time

uPlot chart will show altitude changes over time

Two-Line Element Set

1 48768U 21045B 25350.88385666 -.00000150 00000-0 -43340-3 0 9995
2 48768 87.9001 295.5598 0002093 66.6156 293.5195 13.15548741220431
Epoch: Dec 16, 2025 • Age: 11 hours

Current Status

Altitude 1204.1 km
Velocity 7.25 km/s
Sub-Earth Point -0.35°S, 86.8°E
Launch Date May 28, 2021
Age 4.5 years
Type internet

Technical Details

Classification Payload
Mass 148.00 kg
Dry Mass 140.00 kg
Total Mass 148.00 kg
Length 1.30 m
Diameter 1.00 m
Span 5.00 m
Shape Trapezoid+2 pan
Manufacturer ONEWUS
Bus Type ARROW
Phase Status In Orbit
Owner/State ONEWEBN/UK

Large Constellations

Loading constellations...